STARLINK-5693

Satellite information

Favourite Embed

Satellite Type and Status

PAYLOADDECAYED

Key statistics

Satellite STARLINK-5693 at a glance.

Uptime

727

Days in orbit

Revolutions

≈ 16.5

Per day

Orbit

LEO

Low Earth Orbit

Inclination

43.0

Latest

Satellite identification and parameters

Extended collection of information and parameters for STARLINK-5693.

Object identification

Identified? True

Debris? False

Object name: STARLINK-5693

International designator: 2023-015AK

Object number (NORAD): 55482

Object ID (CCSDS): 55482

Country: UNITED STATES OF AMERICA (US)

Current information (Y/N): Y

RCS size: LARGE

Orbital parameters

Decay date: Jan. 29, 2025

Period: 87.198 minutes

Inclination: 42.9852 deg

SMA: 6513.729 km

Apoapsis: 141.178 km

Periapsis: 130.01 km

RAAN: 348.1107 deg

Eccentricy: 0.0008572

Argument of periapsis: 274.4437 deg

Mean anomaly: 140.4065 deg

Mean motion: 16.51422629 rev/day

Mean motion (dot): 0.25797387 rev/day2

B* drag term: 0.00021671 1/REarth

Two-line elements (TLE)

Creation date: Jan. 29, 2025, 2:16 a.m.

Reference frame: TEME

Reference center: EARTH

Epoch: Jan. 29, 2025, 1:24 a.m. UTC

TLE line 0: 0 STARLINK-5693

TLE line 1: 1 55482U 23015AK 25029.05860583 .25797387 95571-5 21671-3 0 9998

TLE line 2: 2 55482 42.9852 348.1107 0008572 274.4437 140.4065 16.51422629109898

Live tracking on map

Satellite STARLINK-5693 has decayed and is no longer in orbit. No tracking available.

In-orbit conjunctions

Satellite STARLINK-5693 has decayed and is no longer in orbit. No conjunctions available.

Associated space launch

A batch of 53 satellites for the Starlink mega-constellation - SpaceX's project for space-based Internet communication system.

STARLINK-5693 was lifted into orbit during the mission ‘Falcon 9 Block 5 | Starlink Group 5-3’, on board a Falcon 9 space rocket.

The launch took place on Feb. 2, 2023, 7:58 a.m. from Launch Complex 39A.

For more information about the launch, click the button.

Launch to space Falcon 9 Block 5 | Starlink Group 5-3
Falcon 9 Block 5 | Starlink Group 5-3

Agency: N/A

Status: Launch Successful

Launch date: Feb. 2, 2023, 7:58 a.m. UTC

Rocket: Falcon 9

Launch pad: Launch Complex 39A

Location: Kennedy Space Center, FL, USA

...

Latest news about this satellite

News about space launch
SpaceX Starlink Gen2 mission marks Falcon 9 rocket’s 200th successful launch

A day and a half after its 200th launch overall, SpaceX’s Falcon 9 rocket has successfully launched for the 200th time. Falcon...

News about space launch
SpaceX conducts cross-country Starlink doubleheader

SpaceX ended January with and began February with two Starlink missions. These launches occurred two days apart from separate launch sites.

News about space launch
Watch live: SpaceX set to launch 53 more Starlink internet satellites

SpaceX’s launch team in Florida is counting down to an overnight blastoff early Thursday, with a Falcon 9 rocket set to loft 53 more Starlink internet satellites into orbit. Liftoff from Kennedy Space Center is scheduled for 2:43 a.m. EST (0743 GMT).


Newsletter sign-up

Weekly statistics, charts and insights to help you stay on top of the space industry.